Data supplied by UK-AIR on 27/4/2024
All Data GMT hour ending 
Status: R =Ratified P=Provisional,P*=As supplied
,,Fort William,,,,,,,,,,,,,,,,,,,,,,,
Date,time,"Nitric oxide",status,unit,"Nitrogen dioxide",status,unit,"Nitrogen oxides as nitrogen dioxide",status,unit,"Ozone",status,unit
 
01-01-2023,01:00,0.20522,R,ugm-3,2.11608,R,ugm-3,2.43075,R,ugm-3,66.58986,R,ugm-3
01-01-2023,02:00,0.42327,R,ugm-3,1.68679,R,ugm-3,2.33580,R,ugm-3,65.25939,R,ugm-3
01-01-2023,03:00,0.53871,R,ugm-3,2.13647,R,ugm-3,2.96248,R,ugm-3,63.56305,R,ugm-3
01-01-2023,04:00,0.11544,R,ugm-3,1.53212,R,ugm-3,1.70912,R,ugm-3,56.77767,R,ugm-3
01-01-2023,05:00,0.15392,R,ugm-3,3.58104,R,ugm-3,3.81704,R,ugm-3,53.83401,R,ugm-3
01-01-2023,06:00,0.15392,R,ugm-3,2.72648,R,ugm-3,2.96248,R,ugm-3,54.88175,R,ugm-3
01-01-2023,07:00,0.30784,R,ugm-3,2.31956,R,ugm-3,2.79157,R,ugm-3,55.38068,R,ugm-3
01-01-2023,08:00,0.26936,R,ugm-3,3.97374,R,ugm-3,4.38675,R,ugm-3,54.73207,R,ugm-3
01-01-2023,09:00,0.42327,R,ugm-3,6.92810,R,ugm-3,7.57711,R,ugm-3,46.59960,R,ugm-3
01-01-2023,10:00,0.73111,R,ugm-3,13.91926,R,ugm-3,15.04028,R,ugm-3,29.08733,R,ugm-3
01-01-2023,11:00,1.96245,R,ugm-3,18.12710,R,ugm-3,21.13615,R,ugm-3,27.19141,R,ugm-3
01-01-2023,12:00,1.30830,R,ugm-3,10.47056,R,ugm-3,12.47659,R,ugm-3,35.97249,R,ugm-3
01-01-2023,13:00,0.65415,R,ugm-3,5.77650,R,ugm-3,6.77952,R,ugm-3,44.00519,R,ugm-3
01-01-2023,14:00,4.96384,R,ugm-3,13.63897,R,ugm-3,21.25009,R,ugm-3,40.21336,R,ugm-3
01-01-2023,15:00,5.19472,R,ugm-3,27.86948,R,ugm-3,35.83460,R,ugm-3,25.59485,R,ugm-3
01-01-2023,16:00,1.46222,R,ugm-3,21.05900,R,ugm-3,23.30103,R,ugm-3,26.74238,R,ugm-3
01-01-2023,17:00,2.92443,R,ugm-3,24.28616,R,ugm-3,28.77022,R,ugm-3,22.80087,R,ugm-3
01-01-2023,18:00,3.73250,R,ugm-3,24.81323,R,ugm-3,30.53632,R,ugm-3,15.36689,R,ugm-3
01-01-2023,19:00,7.08020,R,ugm-3,27.99788,R,ugm-3,38.85404,R,ugm-3,9.03054,R,ugm-3
01-01-2023,20:00,1.15438,R,ugm-3,9.96595,R,ugm-3,11.73597,R,ugm-3,31.78152,R,ugm-3
01-01-2023,21:00,0.46175,R,ugm-3,7.55275,R,ugm-3,8.26076,R,ugm-3,32.87916,R,ugm-3
01-01-2023,22:00,0.34631,R,ugm-3,8.07157,R,ugm-3,8.60258,R,ugm-3,32.23056,R,ugm-3
01-01-2023,23:00,0.23088,R,ugm-3,9.84376,R,ugm-3,10.19776,R,ugm-3,28.13937,R,ugm-3
01-01-2023,24:00,0.11544,R,ugm-3,8.99529,R,ugm-3,9.17229,R,ugm-3,26.49292,R,ugm-3
02-01-2023,01:00,0.25666,R,ugm-3,3.86211,R,ugm-3,4.25566,R,ugm-3,33.32819,R,ugm-3
02-01-2023,02:00,0.42350,R,ugm-3,2.31441,R,ugm-3,2.96376,R,ugm-3,34.12647,R,ugm-3
02-01-2023,03:00,0.30800,R,ugm-3,4.08738,R,ugm-3,4.55963,R,ugm-3,28.48862,R,ugm-3
02-01-2023,04:00,0.30800,R,ugm-3,4.48635,R,ugm-3,4.95860,R,ugm-3,28.43873,R,ugm-3
02-01-2023,05:00,0.46199,R,ugm-3,4.76318,R,ugm-3,5.47156,R,ugm-3,23.15012,R,ugm-3
02-01-2023,06:00,0.30800,R,ugm-3,4.48635,R,ugm-3,4.95860,R,ugm-3,20.70539,R,ugm-3
02-01-2023,07:00,0.76999,R,ugm-3,6.45675,R,ugm-3,7.63738,R,ugm-3,18.65980,R,ugm-3
02-01-2023,08:00,0.96249,R,ugm-3,11.00620,R,ugm-3,12.48199,R,ugm-3,12.22366,R,ugm-3
02-01-2023,09:00,1.92498,R,ugm-3,14.43201,R,ugm-3,17.38360,R,ugm-3,9.57936,R,ugm-3
02-01-2023,10:00,4.31195,R,ugm-3,16.07261,R,ugm-3,22.68417,R,ugm-3,6.88517,R,ugm-3
02-01-2023,11:00,14.89931,R,ugm-3,18.30538,R,ugm-3,41.15068,R,ugm-3,5.18882,R,ugm-3
02-01-2023,12:00,18.90326,R,ugm-3,22.19727,R,ugm-3,51.18187,R,ugm-3,7.18452,R,ugm-3
02-01-2023,13:00,12.24285,R,ugm-3,20.38374,R,ugm-3,39.15584,R,ugm-3,9.67915,R,ugm-3
02-01-2023,14:00,5.31293,R,ugm-3,15.79168,R,ugm-3,23.93807,R,ugm-3,19.05894,R,ugm-3
02-01-2023,15:00,3.69595,R,ugm-3,18.32801,R,ugm-3,23.99506,R,ugm-3,16.71399,R,ugm-3
02-01-2023,16:00,5.69793,R,ugm-3,24.60561,R,ugm-3,33.34231,R,ugm-3,11.97420,R,ugm-3
02-01-2023,17:00,17.36328,R,ugm-3,33.16485,R,ugm-3,59.78817,R,ugm-3,6.43613,R,ugm-3
02-01-2023,18:00,12.58934,R,ugm-3,24.35509,R,ugm-3,43.65848,R,ugm-3,28.93765,R,ugm-3
02-01-2023,19:00,8.54689,R,ugm-3,21.89012,R,ugm-3,34.99518,R,ugm-3,46.00089,R,ugm-3
02-01-2023,20:00,5.89043,R,ugm-3,27.55919,R,ugm-3,36.59105,R,ugm-3,18.75958,R,ugm-3
02-01-2023,21:00,4.31195,R,ugm-3,23.71000,R,ugm-3,30.32155,R,ugm-3,21.65335,R,ugm-3
02-01-2023,22:00,1.69398,R,ugm-3,15.81212,R,ugm-3,18.40952,R,ugm-3,46.84906,R,ugm-3
02-01-2023,23:00,0.57749,R,ugm-3,1.73631,R,ugm-3,2.62179,R,ugm-3,79.07961,R,ugm-3
02-01-2023,24:00,2.34847,R,ugm-3,5.74631,R,ugm-3,9.34725,R,ugm-3,74.58929,R,ugm-3
03-01-2023,01:00,0.71903,R,ugm-3,5.58785,R,ugm-3,6.69035,R,ugm-3,45.76805,R,ugm-3
03-01-2023,02:00,0.80891,R,ugm-3,5.48805,R,ugm-3,6.72837,R,ugm-3,47.43114,R,ugm-3
03-01-2023,03:00,0.46224,R,ugm-3,7.73022,R,ugm-3,8.43897,R,ugm-3,41.31099,R,ugm-3
03-01-2023,04:00,0.26964,R,ugm-3,3.40691,R,ugm-3,3.82034,R,ugm-3,56.02928,R,ugm-3
03-01-2023,05:00,0.30816,R,ugm-3,1.86532,R,ugm-3,2.33782,R,ugm-3,69.79961,R,ugm-3
03-01-2023,06:00,0.11556,R,ugm-3,2.16064,R,ugm-3,2.33782,R,ugm-3,74.88864,R,ugm-3
03-01-2023,07:00,0.38520,R,ugm-3,1.23402,R,ugm-3,1.82464,R,ugm-3,79.02972,R,ugm-3
03-01-2023,08:00,0.30816,R,ugm-3,1.29512,R,ugm-3,1.76762,R,ugm-3,79.62843,R,ugm-3
03-01-2023,09:00,0.15408,R,ugm-3,1.30329,R,ugm-3,1.53954,R,ugm-3,79.22929,R,ugm-3
03-01-2023,10:00,1.07855,R,ugm-3,2.50871,R,ugm-3,4.16246,R,ugm-3,73.44176,R,ugm-3
03-01-2023,11:00,3.27417,R,ugm-3,9.40575,R,ugm-3,14.42608,R,ugm-3,62.36563,R,ugm-3
03-01-2023,12:00,1.07855,R,ugm-3,10.83364,R,ugm-3,12.48739,R,ugm-3,54.68218,R,ugm-3
03-01-2023,13:00,1.69487,R,ugm-3,9.83162,R,ugm-3,12.43037,R,ugm-3,55.28089,R,ugm-3
03-01-2023,14:00,2.04154,R,ugm-3,11.23873,R,ugm-3,14.36905,R,ugm-3,51.98799,R,ugm-3
03-01-2023,15:00,1.23263,R,ugm-3,10.65441,R,ugm-3,12.54441,R,ugm-3,44.20476,R,ugm-3
03-01-2023,16:00,0.61632,R,ugm-3,10.34497,R,ugm-3,11.28997,R,ugm-3,43.55615,R,ugm-3
03-01-2023,17:00,0.88595,R,ugm-3,15.34844,R,ugm-3,16.70688,R,ugm-3,41.71013,R,ugm-3
03-01-2023,18:00,0.69335,R,ugm-3,11.31023,R,ugm-3,12.37335,R,ugm-3,40.91185,R,ugm-3
03-01-2023,19:00,0.69335,R,ugm-3,11.42427,R,ugm-3,12.48739,R,ugm-3,35.62325,R,ugm-3
03-01-2023,20:00,1.07855,R,ugm-3,12.88636,R,ugm-3,14.54011,R,ugm-3,37.46927,R,ugm-3
03-01-2023,21:00,0.61632,R,ugm-3,10.85815,R,ugm-3,11.80315,R,ugm-3,38.66669,R,ugm-3
03-01-2023,22:00,0.46224,R,ugm-3,7.33108,R,ugm-3,8.03983,R,ugm-3,42.45852,R,ugm-3
03-01-2023,23:00,0.38520,R,ugm-3,7.05006,R,ugm-3,7.64069,R,ugm-3,37.02024,R,ugm-3
03-01-2023,24:00,0.38520,R,ugm-3,3.79992,R,ugm-3,4.39055,R,ugm-3,38.86626,R,ugm-3
04-01-2023,01:00,0.15416,R,ugm-3,2.88207,R,ugm-3,3.11844,R,ugm-3,40.71228,R,ugm-3
04-01-2023,02:00,0.69372,R,ugm-3,4.46965,R,ugm-3,5.53334,R,ugm-3,40.04705,R,ugm-3
04-01-2023,03:00,0.30832,R,ugm-3,3.52038,R,ugm-3,3.99313,R,ugm-3,43.55615,R,ugm-3
04-01-2023,04:00,0.34686,R,ugm-3,2.43448,R,ugm-3,2.96633,R,ugm-3,46.64949,R,ugm-3
04-01-2023,05:00,0.38540,R,ugm-3,2.66061,R,ugm-3,3.25155,R,ugm-3,47.74712,R,ugm-3
04-01-2023,06:00,0.84788,R,ugm-3,8.11232,R,ugm-3,9.41238,R,ugm-3,33.42798,R,ugm-3
04-01-2023,07:00,0.69372,R,ugm-3,10.57344,R,ugm-3,11.63712,R,ugm-3,35.52346,R,ugm-3
04-01-2023,08:00,1.34889,R,ugm-3,18.06851,R,ugm-3,20.13679,R,ugm-3,21.00474,R,ugm-3
04-01-2023,09:00,1.27181,R,ugm-3,12.19700,R,ugm-3,14.14709,R,ugm-3,26.59270,R,ugm-3
04-01-2023,10:00,4.00814,R,ugm-3,21.34983,R,ugm-3,27.49555,R,ugm-3,15.11743,R,ugm-3
04-01-2023,11:00,4.04668,R,ugm-3,20.94846,R,ugm-3,27.15329,R,ugm-3,18.75958,R,ugm-3
04-01-2023,12:00,0.88642,R,ugm-3,7.02642,R,ugm-3,8.38557,R,ugm-3,36.47142,R,ugm-3
04-01-2023,13:00,1.54159,R,ugm-3,9.72974,R,ugm-3,12.09348,R,ugm-3,48.84476,R,ugm-3
04-01-2023,14:00,3.00611,R,ugm-3,11.36322,R,ugm-3,15.97252,R,ugm-3,52.83616,R,ugm-3
04-01-2023,15:00,1.77283,R,ugm-3,11.20061,R,ugm-3,13.91891,R,ugm-3,52.28734,R,ugm-3
04-01-2023,16:00,0.88642,R,ugm-3,7.25460,R,ugm-3,8.61375,R,ugm-3,47.19831,R,ugm-3
04-01-2023,17:00,5.35703,R,ugm-3,26.86850,R,ugm-3,35.08250,R,ugm-3,27.84002,R,ugm-3
04-01-2023,18:00,2.46655,R,ugm-3,21.20360,R,ugm-3,24.98559,R,ugm-3,40.31314,R,ugm-3
04-01-2023,19:00,1.92699,R,ugm-3,16.66871,R,ugm-3,19.62338,R,ugm-3,37.02024,R,ugm-3
04-01-2023,20:00,0.84788,R,ugm-3,9.70957,R,ugm-3,11.00963,R,ugm-3,48.74497,R,ugm-3
04-01-2023,21:00,0.57810,R,ugm-3,6.35828,R,ugm-3,7.24468,R,ugm-3,59.17251,R,ugm-3
04-01-2023,22:00,0.42394,R,ugm-3,8.99053,R,ugm-3,9.64056,R,ugm-3,45.15271,R,ugm-3
04-01-2023,23:00,0.34686,R,ugm-3,5.97126,R,ugm-3,6.50310,R,ugm-3,51.98799,R,ugm-3
04-01-2023,24:00,1.19473,R,ugm-3,12.65746,R,ugm-3,14.48936,R,ugm-3,34.17636,R,ugm-3
05-01-2023,01:00,0.56555,R,ugm-3,5.98117,R,ugm-3,6.84833,R,ugm-3,45.63501,R,ugm-3
05-01-2023,02:00,0.73264,R,ugm-3,3.84167,R,ugm-3,4.96504,R,ugm-3,44.23802,R,ugm-3
05-01-2023,03:00,0.53984,R,ugm-3,6.53421,R,ugm-3,7.36195,R,ugm-3,29.78582,R,ugm-3
05-01-2023,04:00,0.80976,R,ugm-3,10.51468,R,ugm-3,11.75629,R,ugm-3,13.37119,R,ugm-3
05-01-2023,05:00,0.80976,R,ugm-3,7.66121,R,ugm-3,8.90282,R,ugm-3,11.97420,R,ugm-3
05-01-2023,06:00,1.00256,R,ugm-3,7.47973,R,ugm-3,9.01696,R,ugm-3,13.17162,R,ugm-3
05-01-2023,07:00,0.84832,R,ugm-3,5.71880,R,ugm-3,7.01953,R,ugm-3,22.75098,R,ugm-3
05-01-2023,08:00,0.61696,R,ugm-3,10.46789,R,ugm-3,11.41388,R,ugm-3,21.80302,R,ugm-3
05-01-2023,09:00,1.19536,R,ugm-3,14.48898,R,ugm-3,16.32184,R,ugm-3,17.41248,R,ugm-3
05-01-2023,10:00,1.00256,R,ugm-3,10.21906,R,ugm-3,11.75629,R,ugm-3,34.07658,R,ugm-3
05-01-2023,11:00,0.38560,R,ugm-3,7.39847,R,ugm-3,7.98971,R,ugm-3,31.93120,R,ugm-3
05-01-2023,12:00,1.15680,R,ugm-3,8.44169,R,ugm-3,10.21542,R,ugm-3,23.10023,R,ugm-3
05-01-2023,13:00,2.58352,R,ugm-3,16.01294,R,ugm-3,19.97428,R,ugm-3,17.96130,R,ugm-3
05-01-2023,14:00,7.24927,R,ugm-3,25.52314,R,ugm-3,36.63854,R,ugm-3,15.21721,R,ugm-3
05-01-2023,15:00,2.23648,R,ugm-3,15.51782,R,ugm-3,18.94703,R,ugm-3,36.82067,R,ugm-3
05-01-2023,16:00,0.96400,R,ugm-3,13.64527,R,ugm-3,15.12338,R,ugm-3,39.61465,R,ugm-3
05-01-2023,17:00,0.84832,R,ugm-3,4.34913,R,ugm-3,5.64987,R,ugm-3,70.69767,R,ugm-3
05-01-2023,18:00,2.15936,R,ugm-3,6.04841,R,ugm-3,9.35938,R,ugm-3,76.78456,R,ugm-3
05-01-2023,19:00,6.47807,R,ugm-3,14.15037,R,ugm-3,24.08328,R,ugm-3,73.49165,R,ugm-3
05-01-2023,20:00,5.05136,R,ugm-3,10.85932,R,ugm-3,18.60462,R,ugm-3,76.53510,R,ugm-3
05-01-2023,21:00,0.42416,R,ugm-3,1.68948,R,ugm-3,2.33984,R,ugm-3,85.61553,R,ugm-3
05-01-2023,22:00,0.38560,R,ugm-3,1.40618,R,ugm-3,1.99743,R,ugm-3,84.46800,R,ugm-3
05-01-2023,23:00,0.42416,R,ugm-3,2.14603,R,ugm-3,2.79640,R,ugm-3,83.61983,R,ugm-3
05-01-2023,24:00,0.23136,R,ugm-3,1.01492,R,ugm-3,1.36967,R,ugm-3,83.02112,R,ugm-3
06-01-2023,01:00,0.25720,R,ugm-3,0.74751,R,ugm-3,1.14188,R,ugm-3,82.08979,R,ugm-3
06-01-2023,02:00,0.34722,R,ugm-3,0.89495,R,ugm-3,1.42735,R,ugm-3,84.15202,R,ugm-3
06-01-2023,03:00,0.19290,R,ugm-3,0.73192,R,ugm-3,1.02769,R,ugm-3,85.81510,R,ugm-3
06-01-2023,04:00,0.30864,R,ugm-3,0.44026,R,ugm-3,0.91351,R,ugm-3,84.31833,R,ugm-3
06-01-2023,05:00,0.19290,R,ugm-3,0.56063,R,ugm-3,0.85641,R,ugm-3,84.11876,R,ugm-3
06-01-2023,06:00,0.34722,R,ugm-3,0.89495,R,ugm-3,1.42735,R,ugm-3,85.41596,R,ugm-3
06-01-2023,07:00,0.30864,R,ugm-3,1.12539,R,ugm-3,1.59863,R,ugm-3,86.26413,R,ugm-3
06-01-2023,08:00,0.65586,R,ugm-3,2.19163,R,ugm-3,3.19727,R,ugm-3,86.51360,R,ugm-3
06-01-2023,09:00,1.38888,R,ugm-3,3.35143,R,ugm-3,5.48103,R,ugm-3,85.26628,R,ugm-3
06-01-2023,10:00,1.31172,R,ugm-3,5.06838,R,ugm-3,7.07966,R,ugm-3,81.62413,R,ugm-3
06-01-2023,11:00,1.08024,R,ugm-3,5.25203,R,ugm-3,6.90838,R,ugm-3,81.57424,R,ugm-3
06-01-2023,12:00,1.42746,R,ugm-3,5.57604,R,ugm-3,7.76479,R,ugm-3,79.12951,R,ugm-3
06-01-2023,13:00,0.84876,R,ugm-3,4.23670,R,ugm-3,5.53812,R,ugm-3,76.83445,R,ugm-3
06-01-2023,14:00,1.54320,R,ugm-3,5.17020,R,ugm-3,7.53641,R,ugm-3,74.48950,R,ugm-3
06-01-2023,15:00,1.77469,R,ugm-3,11.95202,R,ugm-3,14.67317,R,ugm-3,68.60219,R,ugm-3
06-01-2023,16:00,0.77160,R,ugm-3,9.49348,R,ugm-3,10.67659,R,ugm-3,64.16176,R,ugm-3
06-01-2023,17:00,0.92592,R,ugm-3,8.74301,R,ugm-3,10.16274,R,ugm-3,66.60649,R,ugm-3
06-01-2023,18:00,0.54012,R,ugm-3,6.82243,R,ugm-3,7.65060,R,ugm-3,67.90369,R,ugm-3
06-01-2023,19:00,0.42438,R,ugm-3,8.19887,R,ugm-3,8.84958,R,ugm-3,67.45466,R,ugm-3
06-01-2023,20:00,0.61728,R,ugm-3,6.81830,R,ugm-3,7.76479,R,ugm-3,62.36563,R,ugm-3
06-01-2023,21:00,0.54012,R,ugm-3,4.65285,R,ugm-3,5.48103,R,ugm-3,64.96004,R,ugm-3
06-01-2023,22:00,0.54012,R,ugm-3,6.19439,R,ugm-3,7.02257,R,ugm-3,58.47401,R,ugm-3
06-01-2023,23:00,0.57870,R,ugm-3,5.90686,R,ugm-3,6.79419,R,ugm-3,54.63229,R,ugm-3
06-01-2023,24:00,0.27006,R,ugm-3,4.78147,R,ugm-3,5.19556,R,ugm-3,56.12906,R,ugm-3
07-01-2023,01:00,0.15440,R,ugm-3,4.94202,R,ugm-3,5.17876,R,ugm-3,57.67573,R,ugm-3
07-01-2023,02:00,0.46320,R,ugm-3,3.05960,R,ugm-3,3.76983,R,ugm-3,58.34096,R,ugm-3
07-01-2023,03:00,0.23160,R,ugm-3,3.64319,R,ugm-3,3.99831,R,ugm-3,54.83186,R,ugm-3
07-01-2023,04:00,0.19300,R,ugm-3,2.78848,R,ugm-3,3.08441,R,ugm-3,59.97079,R,ugm-3
07-01-2023,05:00,0.23160,R,ugm-3,1.18709,R,ugm-3,1.54221,R,ugm-3,83.37037,R,ugm-3
07-01-2023,06:00,0.11580,R,ugm-3,1.93583,R,ugm-3,2.11339,R,ugm-3,75.18800,R,ugm-3
07-01-2023,07:00,0.27020,R,ugm-3,4.95485,R,ugm-3,5.36916,R,ugm-3,70.64778,R,ugm-3
07-01-2023,08:00,0.42460,R,ugm-3,7.68828,R,ugm-3,8.33933,R,ugm-3,50.59100,R,ugm-3
07-01-2023,09:00,0.61760,R,ugm-3,16.75982,R,ugm-3,17.70680,R,ugm-3,34.37593,R,ugm-3
07-01-2023,10:00,0.57900,R,ugm-3,14.07730,R,ugm-3,14.96510,R,ugm-3,42.30884,R,ugm-3
07-01-2023,11:00,2.27742,R,ugm-3,22.83973,R,ugm-3,26.33172,R,ugm-3,35.62325,R,ugm-3
07-01-2023,12:00,1.08081,R,ugm-3,7.48178,R,ugm-3,9.13899,R,ugm-3,74.38972,R,ugm-3
07-01-2023,13:00,1.38961,R,ugm-3,12.54880,R,ugm-3,14.67951,R,ugm-3,68.10326,R,ugm-3
07-01-2023,14:00,0.96501,R,ugm-3,10.17256,R,ugm-3,11.65221,R,ugm-3,62.76477,R,ugm-3
07-01-2023,15:00,1.58261,R,ugm-3,14.30914,R,ugm-3,16.73578,R,ugm-3,57.92519,R,ugm-3
07-01-2023,16:00,0.81061,R,ugm-3,10.35219,R,ugm-3,11.59510,R,ugm-3,59.27229,R,ugm-3
07-01-2023,17:00,0.61760,R,ugm-3,6.13574,R,ugm-3,7.08272,R,ugm-3,74.48950,R,ugm-3
07-01-2023,18:00,1.46681,R,ugm-3,4.31957,R,ugm-3,6.56865,R,ugm-3,80.27703,R,ugm-3
07-01-2023,19:00,0.54040,R,ugm-3,2.02733,R,ugm-3,2.85593,R,ugm-3,83.42026,R,ugm-3
07-01-2023,20:00,0.42460,R,ugm-3,2.43336,R,ugm-3,3.08441,R,ugm-3,81.67402,R,ugm-3
07-01-2023,21:00,0.27020,R,ugm-3,1.52773,R,ugm-3,1.94204,R,ugm-3,82.12306,R,ugm-3
07-01-2023,22:00,0.23160,R,ugm-3,1.12997,R,ugm-3,1.48509,R,ugm-3,81.22499,R,ugm-3
07-01-2023,23:00,0.19300,R,ugm-3,0.90356,R,ugm-3,1.19949,R,ugm-3,81.82370,R,ugm-3
07-01-2023,24:00,0.30880,R,ugm-3,0.55465,R,ugm-3,1.02814,R,ugm-3,79.57854,R,ugm-3
08-01-2023,01:00,0.20598,R,ugm-3,0.97943,R,ugm-3,1.29525,R,ugm-3,79.89452,R,ugm-3
08-01-2023,02:00,0.34758,R,ugm-3,0.83849,R,ugm-3,1.37144,R,ugm-3,86.94600,R,ugm-3
08-01-2023,03:00,0.19310,R,ugm-3,0.67535,R,ugm-3,0.97144,R,ugm-3,87.26198,R,ugm-3
08-01-2023,04:00,0.15448,R,ugm-3,0.67743,R,ugm-3,0.91429,R,ugm-3,88.65897,R,ugm-3
08-01-2023,05:00,0.19310,R,ugm-3,0.50392,R,ugm-3,0.80001,R,ugm-3,89.90629,R,ugm-3
08-01-2023,06:00,0.15448,R,ugm-3,0.67743,R,ugm-3,0.91429,R,ugm-3,89.75661,R,ugm-3
08-01-2023,07:00,0.19310,R,ugm-3,0.67535,R,ugm-3,0.97144,R,ugm-3,89.85639,R,ugm-3
08-01-2023,08:00,0.42482,R,ugm-3,0.83434,R,ugm-3,1.48573,R,ugm-3,88.75876,R,ugm-3
08-01-2023,09:00,0.15448,R,ugm-3,0.79171,R,ugm-3,1.02858,R,ugm-3,87.91059,R,ugm-3
08-01-2023,10:00,0.07724,R,ugm-3,0.85300,R,ugm-3,0.97144,R,ugm-3,85.31618,R,ugm-3
08-01-2023,11:00,0.46345,R,ugm-3,1.57513,R,ugm-3,2.28573,R,ugm-3,84.96693,R,ugm-3
08-01-2023,12:00,0.54069,R,ugm-3,1.68527,R,ugm-3,2.51431,R,ugm-3,84.16865,R,ugm-3
08-01-2023,13:00,0.65655,R,ugm-3,1.96476,R,ugm-3,2.97146,R,ugm-3,80.42671,R,ugm-3
08-01-2023,14:00,0.69517,R,ugm-3,1.96269,R,ugm-3,3.02860,R,ugm-3,80.57639,R,ugm-3
08-01-2023,15:00,0.54069,R,ugm-3,2.65671,R,ugm-3,3.48575,R,ugm-3,78.88004,R,ugm-3
08-01-2023,16:00,0.54069,R,ugm-3,3.57100,R,ugm-3,4.40004,R,ugm-3,74.04047,R,ugm-3
08-01-2023,17:00,0.57931,R,ugm-3,3.11178,R,ugm-3,4.00004,R,ugm-3,73.79101,R,ugm-3
08-01-2023,18:00,4.63445,R,ugm-3,8.77980,R,ugm-3,15.88585,R,ugm-3,63.31358,R,ugm-3
08-01-2023,19:00,18.11297,R,ugm-3,25.88478,R,ugm-3,53.65761,R,ugm-3,49.24390,R,ugm-3
08-01-2023,20:00,3.32136,R,ugm-3,8.16459,R,ugm-3,13.25726,R,ugm-3,62.56520,R,ugm-3
08-01-2023,21:00,0.54069,R,ugm-3,4.31386,R,ugm-3,5.14290,R,ugm-3,66.95574,R,ugm-3
08-01-2023,22:00,0.34758,R,ugm-3,3.75280,R,ugm-3,4.28575,R,ugm-3,67.40477,R,ugm-3
08-01-2023,23:00,0.84965,R,ugm-3,4.06870,R,ugm-3,5.37148,R,ugm-3,66.85595,R,ugm-3
08-01-2023,24:00,0.27034,R,ugm-3,2.09979,R,ugm-3,2.51431,R,ugm-3,67.20520,R,ugm-3
09-01-2023,01:00,0.36065,R,ugm-3,6.99320,R,ugm-3,7.54618,R,ugm-3,52.55343,R,ugm-3
09-01-2023,02:00,0.57961,R,ugm-3,1.28366,R,ugm-3,2.17238,R,ugm-3,80.69280,R,ugm-3
09-01-2023,03:00,0.15456,R,ugm-3,1.42088,R,ugm-3,1.65787,R,ugm-3,78.18155,R,ugm-3
09-01-2023,04:00,0.34777,R,ugm-3,2.26800,R,ugm-3,2.80123,R,ugm-3,75.73682,R,ugm-3
09-01-2023,05:00,0.27048,R,ugm-3,1.01447,R,ugm-3,1.42920,R,ugm-3,80.42671,R,ugm-3
09-01-2023,06:00,0.46369,R,ugm-3,1.91875,R,ugm-3,2.62973,R,ugm-3,77.23359,R,ugm-3
09-01-2023,07:00,0.30913,R,ugm-3,1.41256,R,ugm-3,1.88655,R,ugm-3,79.07961,R,ugm-3
09-01-2023,08:00,0.65689,R,ugm-3,3.90923,R,ugm-3,4.91645,R,ugm-3,75.88649,R,ugm-3
09-01-2023,09:00,0.92737,R,ugm-3,6.18139,R,ugm-3,7.60335,R,ugm-3,73.44176,R,ugm-3
09-01-2023,10:00,5.44832,R,ugm-3,17.71464,R,ugm-3,26.06862,R,ugm-3,73.14241,R,ugm-3
09-01-2023,11:00,6.33705,R,ugm-3,14.12239,R,ugm-3,23.83906,R,ugm-3,70.99703,R,ugm-3
09-01-2023,12:00,1.42970,R,ugm-3,7.41205,R,ugm-3,9.60423,R,ugm-3,71.34628,R,ugm-3
09-01-2023,13:00,1.77747,R,ugm-3,6.47864,R,ugm-3,9.20405,R,ugm-3,73.34198,R,ugm-3
09-01-2023,14:00,2.16387,R,ugm-3,15.14738,R,ugm-3,18.46527,R,ugm-3,60.07057,R,ugm-3
09-01-2023,15:00,2.97532,R,ugm-3,18.07644,R,ugm-3,22.63853,R,ugm-3,55.28089,R,ugm-3
09-01-2023,16:00,1.50698,R,ugm-3,11.92416,R,ugm-3,14.23484,R,ugm-3,64.41122,R,ugm-3
09-01-2023,17:00,1.31378,R,ugm-3,5.81759,R,ugm-3,7.83202,R,ugm-3,73.39187,R,ugm-3
09-01-2023,18:00,1.54562,R,ugm-3,7.86315,R,ugm-3,10.23307,R,ugm-3,68.20305,R,ugm-3
09-01-2023,19:00,4.63687,R,ugm-3,10.09781,R,ugm-3,17.20757,R,ugm-3,67.90369,R,ugm-3
09-01-2023,20:00,3.97998,R,ugm-3,10.24751,R,ugm-3,16.35005,R,ugm-3,64.81036,R,ugm-3
09-01-2023,21:00,1.23650,R,ugm-3,3.70653,R,ugm-3,5.60247,R,ugm-3,70.54800,R,ugm-3
09-01-2023,22:00,0.42505,R,ugm-3,2.20667,R,ugm-3,2.85840,R,ugm-3,75.18800,R,ugm-3
09-01-2023,23:00,0.46369,R,ugm-3,1.28991,R,ugm-3,2.00088,R,ugm-3,74.33983,R,ugm-3
09-01-2023,24:00,0.27048,R,ugm-3,1.12880,R,ugm-3,1.54354,R,ugm-3,74.43961,R,ugm-3
10-01-2023,01:00,0.10310,R,ugm-3,1.13829,R,ugm-3,1.29637,R,ugm-3,73.77438,R,ugm-3
10-01-2023,02:00,0.34795,R,ugm-3,1.46823,R,ugm-3,2.00174,R,ugm-3,70.91387,R,ugm-3
10-01-2023,03:00,0.27063,R,ugm-3,1.24364,R,ugm-3,1.65859,R,ugm-3,70.84735,R,ugm-3
10-01-2023,04:00,0.27063,R,ugm-3,1.24364,R,ugm-3,1.65859,R,ugm-3,72.39402,R,ugm-3
10-01-2023,05:00,0.61857,R,ugm-3,2.19713,R,ugm-3,3.14560,R,ugm-3,76.08606,R,ugm-3
10-01-2023,06:00,0.85054,R,ugm-3,6.24530,R,ugm-3,7.54943,R,ugm-3,69.45036,R,ugm-3
10-01-2023,07:00,0.38661,R,ugm-3,2.38123,R,ugm-3,2.97402,R,ugm-3,77.28348,R,ugm-3
10-01-2023,08:00,4.67795,R,ugm-3,21.02324,R,ugm-3,28.19599,R,ugm-3,56.42842,R,ugm-3
10-01-2023,09:00,1.77839,R,ugm-3,14.14501,R,ugm-3,16.87184,R,ugm-3,59.47186,R,ugm-3
10-01-2023,10:00,0.92786,R,ugm-3,4.18219,R,ugm-3,5.60488,R,ugm-3,75.98628,R,ugm-3
10-01-2023,11:00,1.77839,R,ugm-3,6.13804,R,ugm-3,8.86486,R,ugm-3,73.24219,R,ugm-3
10-01-2023,12:00,0.46393,R,ugm-3,1.91952,R,ugm-3,2.63086,R,ugm-3,76.43531,R,ugm-3
10-01-2023,13:00,0.69589,R,ugm-3,2.19296,R,ugm-3,3.25998,R,ugm-3,75.03832,R,ugm-3
10-01-2023,14:00,0.50259,R,ugm-3,3.40444,R,ugm-3,4.17507,R,ugm-3,69.10111,R,ugm-3
10-01-2023,15:00,0.69589,R,ugm-3,9.51362,R,ugm-3,10.58064,R,ugm-3,50.99014,R,ugm-3
10-01-2023,16:00,1.54643,R,ugm-3,25.48168,R,ugm-3,27.85283,R,ugm-3,31.53206,R,ugm-3
10-01-2023,17:00,1.66241,R,ugm-3,21.98666,R,ugm-3,24.53566,R,ugm-3,29.88561,R,ugm-3
10-01-2023,18:00,4.98723,R,ugm-3,24.03776,R,ugm-3,31.68474,R,ugm-3,39.71443,R,ugm-3
10-01-2023,19:00,14.03384,R,ugm-3,23.43519,R,ugm-3,44.95344,R,ugm-3,68.55230,R,ugm-3
10-01-2023,20:00,8.69866,R,ugm-3,16.57401,R,ugm-3,29.91177,R,ugm-3,79.22929,R,ugm-3
10-01-2023,21:00,0.50259,R,ugm-3,1.51708,R,ugm-3,2.28771,R,ugm-3,92.05166,R,ugm-3
10-01-2023,22:00,0.69589,R,ugm-3,1.27788,R,ugm-3,2.34490,R,ugm-3,89.25768,R,ugm-3
10-01-2023,23:00,0.27063,R,ugm-3,0.95767,R,ugm-3,1.37262,R,ugm-3,86.96263,R,ugm-3
10-01-2023,24:00,0.27063,R,ugm-3,0.78609,R,ugm-3,1.20105,R,ugm-3,86.01467,R,ugm-3
11-01-2023,01:00,0.15472,R,ugm-3,0.60195,R,ugm-3,0.83919,R,ugm-3,84.48463,R,ugm-3
11-01-2023,02:00,0.50285,R,ugm-3,0.77384,R,ugm-3,1.54487,R,ugm-3,79.82800,R,ugm-3
11-01-2023,03:00,0.30945,R,ugm-3,1.01317,R,ugm-3,1.48765,R,ugm-3,78.68047,R,ugm-3
11-01-2023,04:00,0.15472,R,ugm-3,0.90711,R,ugm-3,1.14435,R,ugm-3,79.02972,R,ugm-3
11-01-2023,05:00,0.23209,R,ugm-3,1.07457,R,ugm-3,1.43043,R,ugm-3,81.07531,R,ugm-3
11-01-2023,06:00,0.58021,R,ugm-3,1.74235,R,ugm-3,2.63200,R,ugm-3,82.17295,R,ugm-3
11-01-2023,07:00,2.05009,R,ugm-3,5.89692,R,ugm-3,9.04034,R,ugm-3,81.92349,R,ugm-3
11-01-2023,08:00,1.00570,R,ugm-3,3.66472,R,ugm-3,5.20678,R,ugm-3,80.27703,R,ugm-3
11-01-2023,09:00,1.50855,R,ugm-3,5.58291,R,ugm-3,7.89599,R,ugm-3,79.87789,R,ugm-3
11-01-2023,10:00,3.32655,R,ugm-3,8.40265,R,ugm-3,13.50329,R,ugm-3,77.33338,R,ugm-3
11-01-2023,11:00,1.93404,R,ugm-3,7.21919,R,ugm-3,10.18469,R,ugm-3,76.63488,R,ugm-3
11-01-2023,12:00,7.46541,R,ugm-3,16.99022,R,ugm-3,28.43702,R,ugm-3,68.15316,R,ugm-3
11-01-2023,13:00,1.03149,R,ugm-3,4.36901,R,ugm-3,5.95060,R,ugm-3,65.60864,R,ugm-3
11-01-2023,14:00,0.92834,R,ugm-3,5.04212,R,ugm-3,6.46556,R,ugm-3,70.59789,R,ugm-3
11-01-2023,15:00,0.96702,R,ugm-3,6.75655,R,ugm-3,8.23930,R,ugm-3,74.04047,R,ugm-3
11-01-2023,16:00,1.08306,R,ugm-3,5.66314,R,ugm-3,7.32382,R,ugm-3,85.01682,R,ugm-3
11-01-2023,17:00,0.50285,R,ugm-3,4.26410,R,ugm-3,5.03513,R,ugm-3,82.22284,R,ugm-3
11-01-2023,18:00,0.73494,R,ugm-3,4.59485,R,ugm-3,5.72173,R,ugm-3,76.93424,R,ugm-3
11-01-2023,19:00,5.72477,R,ugm-3,9.98943,R,ugm-3,18.76729,R,ugm-3,73.59144,R,ugm-3
11-01-2023,20:00,4.52566,R,ugm-3,11.25586,R,ugm-3,18.19511,R,ugm-3,68.40262,R,ugm-3
11-01-2023,21:00,0.50285,R,ugm-3,2.31871,R,ugm-3,3.08974,R,ugm-3,78.58069,R,ugm-3
11-01-2023,22:00,0.46417,R,ugm-3,2.09193,R,ugm-3,2.80365,R,ugm-3,76.98413,R,ugm-3
11-01-2023,23:00,0.42549,R,ugm-3,2.60898,R,ugm-3,3.26139,R,ugm-3,78.53080,R,ugm-3
11-01-2023,24:00,0.30945,R,ugm-3,1.47091,R,ugm-3,1.94539,R,ugm-3,79.37897,R,ugm-3
12-01-2023,01:00,0.25785,R,ugm-3,1.20658,R,ugm-3,1.60194,R,ugm-3,81.29151,R,ugm-3
12-01-2023,02:00,0.54148,R,ugm-3,1.22937,R,ugm-3,2.05964,R,ugm-3,80.36019,R,ugm-3
12-01-2023,03:00,0.27074,R,ugm-3,1.12960,R,ugm-3,1.54473,R,ugm-3,76.93424,R,ugm-3
12-01-2023,04:00,0.30942,R,ugm-3,1.18472,R,ugm-3,1.65915,R,ugm-3,74.14026,R,ugm-3
12-01-2023,05:00,2.32064,R,ugm-3,5.71010,R,ugm-3,9.26836,R,ugm-3,68.85165,R,ugm-3
12-01-2023,06:00,0.65751,R,ugm-3,4.99910,R,ugm-3,6.00727,R,ugm-3,65.10971,R,ugm-3
12-01-2023,07:00,0.81222,R,ugm-3,5.79170,R,ugm-3,7.03709,R,ugm-3,56.97724,R,ugm-3
12-01-2023,08:00,1.00561,R,ugm-3,9.21396,R,ugm-3,10.75587,R,ugm-3,37.36948,R,ugm-3
12-01-2023,09:00,3.82905,R,ugm-3,21.41904,R,ugm-3,27.29017,R,ugm-3,33.02884,R,ugm-3
12-01-2023,10:00,1.74048,R,ugm-3,15.75360,R,ugm-3,18.42229,R,ugm-3,39.71443,R,ugm-3
12-01-2023,11:00,0.85090,R,ugm-3,14.08536,R,ugm-3,15.39005,R,ugm-3,40.56260,R,ugm-3
12-01-2023,12:00,3.59699,R,ugm-3,14.10844,R,ugm-3,19.62375,R,ugm-3,68.85165,R,ugm-3
12-01-2023,13:00,1.04429,R,ugm-3,11.61478,R,ugm-3,13.21600,R,ugm-3,70.94714,R,ugm-3
12-01-2023,14:00,0.73487,R,ugm-3,3.79346,R,ugm-3,4.92024,R,ugm-3,85.16650,R,ugm-3
12-01-2023,15:00,0.77355,R,ugm-3,3.04761,R,ugm-3,4.23370,R,ugm-3,84.71747,R,ugm-3
12-01-2023,16:00,0.77355,R,ugm-3,3.21924,R,ugm-3,4.40533,R,ugm-3,80.52650,R,ugm-3
12-01-2023,17:00,0.69619,R,ugm-3,4.42488,R,ugm-3,5.49236,R,ugm-3,76.03617,R,ugm-3
12-01-2023,18:00,0.58016,R,ugm-3,2.54316,R,ugm-3,3.43273,R,ugm-3,79.57854,R,ugm-3
12-01-2023,19:00,1.89519,R,ugm-3,5.79032,R,ugm-3,8.69624,R,ugm-3,77.08391,R,ugm-3
12-01-2023,20:00,0.69619,R,ugm-3,5.79797,R,ugm-3,6.86545,R,ugm-3,65.70842,R,ugm-3
12-01-2023,21:00,0.34810,R,ugm-3,17.03038,R,ugm-3,17.56411,R,ugm-3,49.34368,R,ugm-3
12-01-2023,22:00,0.30942,R,ugm-3,11.36847,R,ugm-3,11.84290,R,ugm-3,49.14411,R,ugm-3